User: anonymous   Login
Location: B
(0.0000°N, 0.0000°E)
Time: 17:32:59
(UTC+01:00)
Language:

Cosmos 1025 Rocket - Orbit

View from above orbital plane
View from above orbital plane
View from above satellite
View from above satellite

Ground track
Ground track

The orbit data is extracted from the following two-line orbital elements,

1 10974U 78067B   15060.98383764  .00000701  00000-0  75637-4 0  9999
2 10974 082.4797 242.8816 0016324 238.2425 121.7201 14.86881316982990
Epoch (UTC): 01 March 2015 23:36:43
Eccentricity: 0.0016324
inclination: 82.4797°
perigee height: 596 km
apogee height: 619 km
right ascension of ascending node: 242.8816°
argument of perigee: 238.2425°
revolutions per day: 14.86881316
mean anomaly at epoch: 121.7201°
orbit number at epoch: 98299

The dashed part of the orbit path shows where the satellite is in the earth's shadow,  

DLR